Overview Statistics Trail Chart Weather Telemetry Raw packets
 

This is the latest recevied weather packets stored in our database for station/object PTG2-WX. If no packets are shown the sender has not sent any weather packets the latest 10 day(s).

<< 1 2 3 4 5 6 >>
Time Temp. Humidity Pressure Rain* Wind** Luminosity Snow
1788524234 27.22° C 37% 1011.5 hPa - - - -
1788520635 28.33° C 36% 1011.2 hPa - - - -
1788517034 28.33° C 39% 1011.5 hPa - - - -
1788513434 27.22° C 44% 1012 hPa - - - -
1788509834 26.67° C 49% 1012.2 hPa - - - -
1788506234 25.56° C 51% 1013.1 hPa - - - -
1788502635 24.44° C 53% 1013.4 hPa - - - -
1788499035 22.22° C 58% 1014 hPa - - - -
1788495435 17.78° C 77% 1014.1 hPa - - - -
1788491834 15.56° C 86% 1014.4 hPa - - - -
1788488234 15° C 86% 1014.2 hPa - - - -
1788484634 15.56° C 85% 1014.4 hPa - - - -
1788481034 16.11° C 82% 1014.2 hPa - - - -
1788477433 16.67° C 78% 1014.2 hPa - - - -
1788473834 16.67° C 78% 1014.4 hPa - - - -
1788470234 18.89° C 66% 1013.6 hPa - - - -
1788466634 20° C 61% 1014 hPa - - - -
1788459435 21.11° C 56% 1014.9 hPa - - - -
1788455907 21.67° C 53% 1015 hPa - - - -
1788452248 22.78° C 49% 1014.1 hPa - - - -
1788448671 25° C 40% 1013.6 hPa - - - -
1788441434 27.78° C 33% 1013.7 hPa - - - -
1788437834 28.33° C 34% 1013.9 hPa - - - -
1788434234 28.33° C 35% 1014.2 hPa - - - -
1788430635 27.78° C 39% 1014.6 hPa - - - -

* Rain since midnight (hover to see other rain measurements)
** Current wind speed in m/s (hover to see current wind gust speed)